AC0ID-13 Weather Reports


time (UTC)temp
F
wind
direction
speed
knots
gust
knots
rain 1hr
in
rain 24hr
in
rain mn
in
humidity
%
barometer
mb
20260906145511 73 125 1.7 7.0 0.00 0.00 0.00 81 1020.2
20260906145012 73 91 1.7 5.2 0.00 0.00 0.00 82 1020.2
20260906144511 72 134 0.9 4.3 0.00 0.00 0.00 84 1020.2
20260906144009 71 115 0.0 3.5 0.00 0.00 0.00 85 1020.1
20260906143510 71 119 1.7 7.0 0.00 0.00 0.00 85 1020.0
20260906143022 71 149 2.6 8.7 0.00 0.00 0.00 86 1019.9
20260906142510 70 239 1.7 8.7 0.00 0.00 0.00 86 1019.9
20260906142008 70 164 1.7 7.0 0.00 0.00 0.00 86 1019.9
20260906141511 70 158 0.9 7.0 0.00 0.00 0.00 86 1020.0
20260906141010 70 157 0.9 6.1 0.00 0.00 0.00 87 1020.1
20260906140511 70 146 0.9 5.2 0.00 0.00 0.00 87 1020.0
20260906140021 69 115 0.9 5.2 0.00 0.00 0.00 88 1020.0
20260906135512 69 159 1.7 6.1 0.00 0.00 0.00 88 1020.0
20260906135010 69 125 1.7 6.1 0.00 0.00 0.00 89 1020.1
20260906134520 69 150 1.7 7.0 0.00 0.00 0.00 89 1020.1
20260906134012 69 134 0.9 7.0 0.00 0.00 0.00 89 1020.1
20260906133507 69 121 1.7 8.7 0.00 0.00 0.00 90 1020.1
20260906133022 69 115 1.7 8.7 0.00 0.00 0.00 89 1020.0
20260906132514 69 139 0.9 4.3 0.00 0.00 0.00 90 1020.1
20260906132012 69 172 0.9 4.3 0.00 0.00 0.00 90 1020.1
20260906131513 68 141 0.9 3.5 0.00 0.00 0.00 90 1020.0
20260906131015 69 126 0.0 2.6 0.00 0.00 0.00 91 1019.9
20260906130508 68 123 0.0 2.6 0.00 0.00 0.00 91 1019.9
20260906130014 68 169 0.0 2.6 0.00 0.00 0.00 91 1019.8
20260906125510 68 139 0.0 3.5 0.00 0.00 0.00 91 1019.9
20260906125011 68 134 0.9 3.5 0.00 0.00 0.00 91 1019.9
20260906124517 68 93 0.0 2.6 0.00 0.00 0.00 91 1019.8
20260906124011 68 136 0.0 3.5 0.00 0.00 0.00 91 1019.7
20260906123513 68 125 0.9 3.5 0.00 0.00 0.00 91 1019.7
20260906123033 68 121 0.9 3.5 0.00 0.00 0.00 91 1019.7
20260906122513 68 90 0.9 3.5 0.00 0.00 0.00 92 1019.6
20260906122012 68 121 0.0 4.3 0.00 0.00 0.00 91 1019.6
20260906121529 68 130 0.9 4.3 0.00 0.00 0.00 91 1019.6
20260906121015 68 131 0.0 4.3 0.00 0.00 0.00 91 1019.5
20260906120510 68 140 0.9 4.3 0.00 0.00 0.00 91 1019.5
20260906120027 68 128 0.9 5.2 0.00 0.00 0.00 91 1019.5
20260906115515 68 107 1.7 6.1 0.00 0.00 0.00 91 1019.5
20260906115008 68 232 1.7 5.2 0.00 0.00 0.00 91 1019.4
20260906114533 68 148 0.0 3.5 0.00 0.00 0.00 91 1019.3
20260906114004 68 153 0.9 3.5 0.00 0.00 0.00 91 1019.3
20260906113508 68 153 0.0 1.7 0.00 0.00 0.00 91 1019.3
20260906113005 68 122 0.0 3.5 0.00 0.00 0.00 91 1019.3
20260906112503 68 157 0.0 3.5 0.00 0.00 0.00 91 1019.4
20260906112003 68 157 0.9 4.3 0.00 0.00 0.00 91 1019.3
20260906111508 68 128 0.9 4.3 0.00 0.00 0.00 91 1019.4
20260906111002 68 91 0.9 4.3 0.00 0.00 0.00 91 1019.4
20260906110507 68 134 0.9 6.1 0.00 0.00 0.00 91 1019.3
20260906110009 68 123 0.9 6.1 0.00 0.00 0.00 91 1019.3
20260906105509 68 134 1.7 5.2 0.00 0.00 0.00 91 1019.1
20260906105002 68 105 0.0 2.6 0.00 0.00 0.00 91 1019.0
20260906104510 68 123 0.0 0.9 0.00 0.00 0.00 91 1018.9
20260906104008 68 132 0.0 2.6 0.00 0.00 0.00 91 1018.8
20260906103511 68 132 0.0 3.5 0.00 0.00 0.00 91 1018.6
20260906103004 68 106 0.0 3.5 0.00 0.00 0.00 91 1018.5
20260906102508 68 161 0.0 3.5 0.00 0.00 0.00 90 1018.4
20260906102009 68 153 0.9 2.6 0.00 0.00 0.00 90 1018.4
20260906101505 68 148 0.9 3.5 0.00 0.00 0.00 90 1018.4
20260906101004 68 114 0.9 3.5 0.00 0.00 0.00 90 1018.4
20260906100507 68 146 0.9 3.5 0.00 0.00 0.00 90 1018.4
20260906100006 68 144 0.0 3.5 0.00 0.00 0.00 90 1018.4
20260906095505 69 129 0.0 2.6 0.00 0.00 0.00 90 1018.3
20260906095004 69 132 0.9 2.6 0.00 0.00 0.00 90 1018.3
20260906094510 69 133 0.0 3.5 0.00 0.00 0.00 90 1018.3
20260906094007 69 134 0.9 4.3 0.00 0.00 0.00 90 1018.3
20260906093504 69 112 0.0 4.3 0.00 0.00 0.00 90 1018.3
20260906093013 69 128 0.0 4.3 0.00 0.00 0.00 90 1018.2
20260906092511 69 127 0.9 4.3 0.00 0.00 0.00 90 1018.1
20260906092004 69 148 0.0 3.5 0.00 0.00 0.00 90 1017.9
20260906091516 69 150 0.0 6.1 0.00 0.00 0.00 89 1017.8
20260906091011 69 168 0.9 6.1 0.00 0.00 0.00 89 1017.8
20260906090515 69 150 0.0 4.3 0.00 0.00 0.00 89 1017.8
20260906090007 69 165 0.9 4.3 0.00 0.00 0.00 89 1017.8
20260906085503 69 106 0.9 3.5 0.00 0.00 0.00 89 1017.7
20260906085004 69 136 0.0 3.5 0.00 0.00 0.00 89 1017.6
20260906084509 69 141 0.9 3.5 0.00 0.00 0.00 89 1017.7
20260906084008 69 119 0.0 3.5 0.00 0.00 0.00 89 1017.8
20260906083508 69 67 0.0 5.2 0.00 0.00 0.00 89 1017.8
20260906083012 69 111 0.9 5.2 0.00 0.00 0.00 89 1017.7
20260906082504 69 153 0.9 4.3 0.00 0.00 0.00 89 1017.8
20260906082011 69 132 0.9 4.3 0.00 0.00 0.00 89 1017.9
20260906081526 69 120 0.9 4.3 0.00 0.00 0.00 89 1018.0
20260906081012 69 144 0.9 3.5 0.00 0.00 0.00 89 1018.2
20260906080507 69 143 0.9 3.5 0.00 0.00 0.00 89 1018.2
20260906080021 69 130 0.0 1.7 0.00 0.00 0.00 89 1018.2
20260906075513 69 109 0.0 2.6 0.00 0.00 0.00 89 1018.3
20260906075002 69 109 0.0 2.6 0.00 0.00 0.00 89 1018.3
20260906074514 69 168 0.0 2.6 0.00 0.00 0.00 90 1018.2
20260906074009 69 134 0.0 2.6 0.00 0.00 0.00 90 1018.2
20260906073505 69 134 0.0 2.6 0.00 0.00 0.00 90 1018.2
20260906073010 69 132 0.9 5.2 0.00 0.00 0.00 90 1018.2
20260906072510 69 123 0.9 5.2 0.00 0.00 0.00 90 1018.1
20260906072010 69 132 0.9 3.5 0.00 0.00 0.00 90 1018.2
20260906071518 69 141 0.9 3.5 0.00 0.00 0.00 90 1018.3
20260906071022 69 134 0.9 2.6 0.00 0.00 0.00 90 1018.3
20260906070514 69 137 0.0 4.3 0.00 0.00 0.00 90 1018.3
20260906070024 69 141 0.9 4.3 0.00 0.00 0.00 90 1018.2
20260906065507 69 155 0.0 0.9 0.00 0.00 0.00 90 1018.3
20260906065009 69 140 0.0 1.7 0.00 0.00 0.00 90 1018.3
20260906064530 69 140 0.9 1.7 0.00 0.00 0.00 90 1018.3
20260906064015 69 153 0.0 0.9 0.00 0.00 0.00 90 1018.3
20260906063508 69 153 0.0 0.9 0.00 0.00 0.00 90 1018.5
20260906063024 69 121 0.0 0.9 0.00 0.00 0.00 90 1018.5
20260906062507 69 117 0.0 0.9 0.00 0.00 0.00 90 1018.5
20260906062007 69 117 0.0 0.9 0.00 0.00 0.00 90 1018.5
20260906061512 69 117 0.0 0.9 0.00 0.00 0.00 89 1018.5
20260906061009 69 117 0.0 0.9 0.00 0.00 0.00 89 1018.5
20260906060511 69 117 0.0 0.9 0.00 0.00 0.00 89 1018.5
20260906060015 69 117 0.0 0.9 0.00 0.00 0.00 89 1018.5
20260906055513 69 117 0.0 0.9 0.00 0.00 0.00 89 1018.6
20260906055018 69 117 0.0 0.9 0.00 0.00 0.00 89 1018.6
20260906054528 69 117 0.0 0.9 0.00 0.00 0.00 89 1018.6
20260906054012 70 117 0.0 0.0 0.00 0.00 0.00 89 1018.7
20260906053520 70 117 0.0 0.0 0.00 0.00 0.00 89 1018.7
20260906053032 70 117 0.0 0.0 0.00 0.00 0.00 88 1018.7
20260906052508 70 117 0.0 0.0 0.00 0.00 0.00 88 1018.6
20260906052012 70 117 0.0 0.0 0.00 0.00 0.00 88 1018.7
20260906051530 70 117 0.0 0.0 0.00 0.00 0.00 88 1018.8
20260906051018 70 117 0.0 0.0 0.00 0.00 0.00 88 1018.7
20260906050510 70 117 0.0 0.0 0.00 0.00 0.00 88 1018.6
20260906050017 70 117 0.0 0.0 0.00 0.00 0.00 88 1018.7
20260906045516 71 117 0.0 0.0 0.00 0.00 0.00 88 1018.6
20260906045012 71 117 0.0 0.0 0.00 0.00 0.00 88 1018.5
20260906044520 71 117 0.0 0.0 0.00 0.00 0.00 88 1018.5
20260906044016 71 117 0.0 0.0 0.00 0.00 0.00 88 1018.4
20260906043518 71 117 0.0 0.0 0.00 0.00 0.00 88 1018.5
20260906043026 71 117 0.0 0.0 0.00 0.00 0.00 88 1018.6
20260906042515 71 117 0.0 0.0 0.00 0.00 0.00 87 1018.6
20260906042018 71 117 0.0 0.0 0.00 0.00 0.00 87 1018.5
20260906041536 71 117 0.0 0.0 0.00 0.00 0.00 88 1018.4
20260906041007 71 117 0.0 0.0 0.00 0.00 0.00 88 1018.4
20260906040507 71 117 0.0 0.0 0.00 0.00 0.00 88 1018.3
20260906040025 71 117 0.0 0.0 0.00 0.00 0.00 87 1018.3
20260906035508 72 117 0.0 0.0 0.00 0.00 0.00 87 1018.4
20260906035010 72 117 0.0 0.0 0.00 0.00 0.00 87 1018.4
20260906034504 72 117 0.0 0.0 0.00 0.00 0.00 87 1018.4
20260906034008 72 117 0.0 0.0 0.00 0.00 0.00 87 1018.4
20260906033513 72 117 0.0 0.0 0.00 0.00 0.00 87 1018.4
20260906033026 72 117 0.0 0.0 0.00 0.00 0.00 87 1018.4
20260906032505 72 117 0.0 0.0 0.00 0.00 0.00 87 1018.4
20260906032013 72 117 0.0 0.0 0.00 0.00 0.00 87 1018.4
20260906031544 72 117 0.0 0.0 0.00 0.00 0.00 87 1018.3
20260906031016 72 117 0.0 0.0 0.00 0.00 0.00 87 1018.3
20260906030511 72 117 0.0 0.0 0.00 0.00 0.00 87 1018.2
20260906030008 72 117 0.0 0.0 0.00 0.00 0.00 87 1018.1
20260906025510 72 117 0.0 0.0 0.00 0.00 0.00 87 1018.2
20260906025006 72 117 0.0 0.0 0.00 0.00 0.00 87 1018.2
20260906024516 72 117 0.0 0.0 0.00 0.00 0.00 87 1018.1
20260906024010 72 117 0.0 0.0 0.00 0.00 0.00 86 1018.0
20260906023512 73 117 0.0 0.0 0.00 0.00 0.00 86 1018.0
20260906023012 73 117 0.0 0.9 0.00 0.00 0.00 86 1017.9
20260906022517 73 117 0.0 0.9 0.00 0.00 0.00 86 1017.8
20260906022014 73 117 0.0 0.9 0.00 0.00 0.00 86 1017.7
20260906021510 73 117 0.0 0.9 0.00 0.00 0.00 86 1017.6
20260906021009 73 117 0.0 0.9 0.00 0.00 0.00 86 1017.5
20260906020514 73 117 0.0 0.9 0.00 0.00 0.00 86 1017.4
20260906020037 73 117 0.0 0.9 0.00 0.00 0.00 86 1017.4
20260906015509 73 117 0.0 1.7 0.00 0.00 0.00 86 1017.3
20260906015013 73 117 0.0 1.7 0.00 0.00 0.00 86 1017.3
20260906014516 73 117 0.0 0.9 0.00 0.00 0.00 85 1017.2
20260906014007 73 117 0.0 0.0 0.00 0.00 0.00 85 1017.2
20260906013510 73 117 0.0 0.0 0.00 0.00 0.00 85 1017.1
20260906013016 74 117 0.0 0.9 0.00 0.00 0.00 85 1017.1
20260906012510 74 117 0.0 0.9 0.00 0.00 0.00 85 1017.0
20260906012013 74 117 0.0 1.7 0.00 0.00 0.00 85 1016.8
20260906011523 74 121 0.9 1.7 0.00 0.00 0.00 85 1016.7
20260906011016 74 146 0.0 0.0 0.00 0.00 0.00 85 1016.7
20260906010515 74 146 0.0 0.9 0.00 0.00 0.00 85 1016.7
20260906010016 74 146 0.0 1.7 0.00 0.00 0.00 85 1016.6
20260906005516 74 146 0.0 1.7 0.00 0.00 0.00 84 1016.6
20260906005017 74 51 0.0 0.9 0.00 0.00 0.00 84 1016.6
20260906004515 74 51 0.0 0.9 0.00 0.00 0.00 84 1016.6
20260906004011 74 51 0.0 1.7 0.00 0.00 0.00 83 1016.5
20260906003517 75 107 0.0 1.7 0.00 0.00 0.00 83 1016.4
20260906003011 75 157 0.0 0.9 0.00 0.00 0.00 82 1016.3
20260906002511 75 157 0.0 0.9 0.00 0.00 0.00 82 1016.4
20260906002010 75 157 0.0 2.6 0.00 0.00 0.00 81 1016.5
20260906001518 76 157 0.0 2.6 0.00 0.00 0.00 81 1016.5
20260906001010 76 165 0.0 0.9 0.00 0.00 0.00 81 1016.5
20260906000513 76 165 0.0 0.9 0.00 0.00 0.00 80 1016.5
20260906000027 76 165 0.0 0.9 0.00 0.00 0.00 80 1016.6
20260905235515 76 165 0.0 1.7 0.00 0.00 0.00 79 1016.5
20260905235014 77 165 0.0 2.6 0.00 0.00 0.00 79 1016.5
20260905234525 77 53 0.0 2.6 0.00 0.00 0.00 79 1016.4
20260905234015 77 132 0.0 2.6 0.00 0.00 0.00 79 1016.4
20260905233515 77 128 0.0 3.5 0.00 0.00 0.00 79 1016.3
20260905233022 77 117 0.0 3.5 0.00 0.00 0.00 78 1016.4
20260905232517 77 92 0.9 3.5 0.00 0.00 0.00 78 1016.3
20260905232016 77 64 0.0 2.6 0.00 0.00 0.00 78 1016.3
20260905231527 77 136 0.0 1.7 0.00 0.00 0.00 78 1016.2
20260905231016 77 115 0.0 2.6 0.00 0.00 0.00 78 1016.2
20260905230513 77 109 0.0 2.6 0.00 0.00 0.00 78 1016.2
20260905230020 77 84 0.0 2.6 0.00 0.00 0.00 78 1016.1
20260905225514 77 137 0.9 5.2 0.00 0.00 0.00 78 1016.0
20260905225014 77 132 0.0 5.2 0.00 0.00 0.00 78 1016.0
20260905224526 77 55 0.0 4.3 0.00 0.00 0.00 78 1015.8
20260905224014 77 128 0.9 4.3 0.00 0.00 0.00 78 1015.8
20260905223514 77 44 0.0 4.3 0.00 0.00 0.00 78 1015.8
20260905223031 77 107 0.9 4.3 0.00 0.00 0.00 78 1015.8
20260905222518 77 82 0.0 5.2 0.00 0.00 0.00 78 1015.8
20260905222011 78 130 0.9 6.1 0.00 0.00 0.00 78 1015.8
20260905221529 78 159 0.9 6.1 0.00 0.00 0.00 77 1015.8
20260905221018 78 129 0.9 5.2 0.00 0.00 0.00 77 1015.9
20260905220516 78 45 0.9 3.5 0.00 0.00 0.00 77 1015.8
20260905220018 78 69 1.7 3.5 0.00 0.00 0.00 77 1015.8
20260905215512 78 82 0.9 2.6 0.00 0.00 0.00 78 1015.8
20260905215008 78 118 0.0 2.6 0.00 0.00 0.00 78 1015.9
20260905214523 78 140 0.0 3.5 0.00 0.00 0.00 78 1016.0
20260905214015 78 148 0.9 3.5 0.00 0.00 0.00 78 1015.9
20260905213509 78 98 0.0 2.6 0.00 0.00 0.00 79 1015.9
20260905213018 78 28 0.9 2.6 0.00 0.00 0.00 78 1015.9
20260905212515 78 69 0.0 2.6 0.00 0.00 0.00 78 1016.2
20260905212017 78 146 0.9 2.6 0.00 0.00 0.00 78 1016.2
20260905211515 78 82 0.0 4.3 0.00 0.00 0.00 78 1016.2
20260905211012 78 148 0.0 4.3 0.00 0.00 0.00 77 1016.1
20260905210509 79 82 0.0 3.5 0.00 0.00 0.00 77 1016.1
20260905210015 79 105 0.9 4.3 0.00 0.00 0.00 77 1016.2
20260905205512 79 17 0.9 4.3 0.00 0.00 0.00 77 1016.3
20260905205012 79 343 0.9 2.6 0.00 0.00 0.00 77 1016.4
20260905204520 79 69 0.0 2.6 0.00 0.00 0.00 77 1016.5
20260905204009 79 140 0.0 4.3 0.00 0.00 0.00 77 1016.6
20260905203512 79 129 0.0 4.3 0.00 0.00 0.00 77 1016.6
20260905203028 80 285 0.0 4.3 0.00 0.00 0.00 76 1016.7
20260905202519 80 360 0.0 2.6 0.00 0.00 0.00 76 1016.8
20260905202010 80 143 0.0 2.6 0.00 0.00 0.00 76 1016.8
20260905201526 80 45 0.0 3.5 0.00 0.00 0.00 76 1017.0
20260905201018 80 34 0.9 3.5 0.00 0.00 0.00 76 1017.0
20260905200510 80 351 0.0 1.7 0.00 0.00 0.00 76 1017.1
20260905200020 79 352 0.0 1.7 0.00 0.00 0.00 77 1017.3
20260905195515 79 147 0.0 1.7 0.00 0.00 0.00 75 1017.3
20260905195008 79 147 0.0 1.7 0.00 0.00 0.00 76 1017.3
20260905194516 79 116 0.0 3.5 0.00 0.00 0.00 77 1017.4
20260905194014 79 131 0.9 3.5 0.00 0.00 0.00 77 1017.4
20260905193511 79 100 0.0 2.6 0.00 0.00 0.00 77 1017.5
20260905193015 79 187 0.0 1.7 0.00 0.00 0.00 77 1017.6
20260905192512 78 139 0.0 1.7 0.00 0.00 0.00 78 1017.5
20260905192015 78 159 0.0 1.7 0.00 0.00 0.00 77 1017.5
20260905191531 78 135 0.0 1.7 0.00 0.00 0.00 78 1017.6
20260905191012 78 73 0.0 2.6 0.00 0.00 0.00 76 1017.6
20260905190517 79 91 0.0 3.5 0.00 0.00 0.00 75 1017.6
20260905190023 81 150 0.9 3.5 0.00 0.00 0.00 74 1017.6
20260905185506 80 174 0.0 4.3 0.00 0.00 0.00 74 1017.6
20260905185010 80 146 0.9 4.3 0.00 0.00 0.00 73 1017.6
20260905184514 80 158 0.9 3.5 0.00 0.00 0.00 74 1017.7
20260905184007 80 165 0.9 6.1 0.00 0.00 0.00 76 1017.6
20260905183512 80 130 0.0 6.1 0.00 0.00 0.00 78 1017.6
20260905183021 78 142 0.0 3.5 0.00 0.00 0.00 78 1017.6
20260905182508 77 143 0.9 3.5 0.00 0.00 0.00 78 1017.8
20260905182010 77 135 0.0 2.6 0.00 0.00 0.00 81 1017.9
20260905181523 76 148 0.0 1.7 0.00 0.00 0.00 81 1018.0
20260905181015 76 147 0.9 1.7 0.00 0.00 0.00 81 1017.9
20260905180506 77 152 0.0 1.7 0.00 0.00 0.00 80 1018.1
20260905180029 77 115 0.0 1.7 0.00 0.00 0.00 79 1018.0
20260905175515 77 115 0.0 2.6 0.00 0.00 0.00 80 1018.1
20260905175008 77 13 0.0 2.6 0.00 0.00 0.00 80 1018.0
20260905174510 77 360 0.9 2.6 0.00 0.00 0.00 80 1018.3
20260905174007 77 334 0.0 1.7 0.00 0.00 0.00 81 1018.3
20260905173510 77 18 0.0 1.7 0.00 0.00 0.00 81 1018.2
20260905173011 77 22 0.0 1.7 0.00 0.00 0.00 82 1018.3
20260905172511 76 348 0.0 1.7 0.00 0.00 0.00 81 1018.4
20260905172013 76 348 0.0 1.7 0.00 0.00 0.00 82 1018.4
20260905171535 76 5 0.0 1.7 0.00 0.00 0.00 82 1018.5
20260905171009 76 22 0.0 1.7 0.00 0.00 0.00 82 1018.5
20260905170514 76 5 0.0 1.7 0.00 0.00 0.00 82 1018.4
20260905170030 76 48 0.0 1.7 0.00 0.00 0.00 82 1018.4
20260905165507 76 121 0.0 2.6 0.00 0.00 0.00 83 1018.5
20260905165010 76 15 0.9 2.6 0.00 0.00 0.00 83 1018.4
20260905164528 76 38 0.0 3.5 0.00 0.00 0.00 83 1018.2
20260905164018 76 169 0.9 3.5 0.00 0.00 0.00 82 1018.2
20260905163514 76 106 0.9 3.5 0.00 0.00 0.00 83 1018.0
20260905163015 75 42 0.0 1.7 0.00 0.00 0.00 83 1018.0
20260905162512 75 34 0.0 1.7 0.00 0.00 0.00 84 1018.0
20260905162013 75 133 0.0 1.7 0.00 0.00 0.00 84 1018.0
20260905161525 75 105 0.0 2.6 0.00 0.00 0.00 84 1018.1
20260905161010 75 45 0.0 3.5 0.00 0.00 0.00 84 1018.1
20260905160515 75 13 0.0 3.5 0.00 0.00 0.00 84 1018.1
20260905160044 75 87 0.0 2.6 0.00 0.00 0.00 85 1018.1
20260905155513 75 55 0.0 2.6 0.00 0.00 0.00 85 1018.1
20260905155013 74 78 0.0 1.7 0.00 0.00 0.00 85 1018.0
20260905154532 74 117 0.0 1.7 0.00 0.00 0.00 85 1018.0
20260905154014 74 51 0.0 2.6 0.00 0.00 0.00 86 1018.0
20260905153516 74 22 0.0 2.6 0.00 0.00 0.00 86 1017.9
20260905153036 74 47 0.0 3.5 0.00 0.00 0.00 86 1017.9
20260905152511 74 119 0.0 4.3 0.00 0.00 0.00 87 1017.9
20260905152016 73 294 0.9 4.3 0.00 0.00 0.00 87 1017.9
20260905151517 73 5 0.0 3.5 0.00 0.00 0.00 88 1017.9
20260905151011 73 13 0.0 3.5 0.00 0.00 0.00 88 1017.9
20260905150511 73 321 0.0 2.6 0.00 0.00 0.00 89 1017.8
20260905150024 73 342 0.0 1.7 0.00 0.00 0.00 89 1017.6